Location: Bastogne Gables
(35.1554°N, 78.9900°W)
Time: 03:14:46
(UTC+00:00)

Meteor 2-10 Rocket - Pass Details

Date: 29 October 2020
Orbit: 733 x 885 km, 81.2° (Epoch: 26 November)

Event Time Altitude Azimuth Distance (km) Brightness Sun altitude
Rises 22:48:20 0° 164° (SSE) 3,324 6.8 -5.7°
Reaches altitude 10° 22:50:57 10° 155° (SSE) 2,371 5.9 -6.2°
Maximum altitude 22:55:40 33° 92° (E) 1,288 4.2 -7.1°
Drops below altitude 10° 23:00:16 10° 29° (NNE) 2,300 5.6 -8.0°
Sets 23:02:46 0° 20° (NNE) 3,211 6.4 -8.5°
